TimePDT,TemperatureF,Dew PointF,Humidity,Sea Level PressureIn,VisibilityMPH,Wind Direction,Wind SpeedMPH,Gust SpeedMPH,PrecipitationIn,Events,Conditions,WindDirDegrees,DateUTC
12:55 AM,54.7,49.5,83,29.96,10.0,WSW,15.0,-,N/A,,Clear,240,2012-10-08 07:55:00
1:55 AM,54.3,48.6,81,29.96,10.0,WSW,10.4,-,N/A,,Clear,240,2012-10-08 08:55:00
2:55 AM,54.3,48.2,80,29.96,10.0,WSW,17.3,-,N/A,,Clear,240,2012-10-08 09:55:00
3:55 AM,54.1,47.5,78,29.95,10.0,WSW,17.3,-,N/A,,Clear,240,2012-10-08 10:55:00
4:55 AM,53.4,47.7,81,29.97,10.0,WSW,20.7,-,N/A,,Clear,240,2012-10-08 11:55:00
5:55 AM,53.2,48.0,82,29.96,10.0,WSW,15.0,-,N/A,,Clear,240,2012-10-08 12:55:00
6:55 AM,52.0,48.2,87,29.97,10.0,WSW,12.7,-,N/A,,Clear,240,2012-10-08 13:55:00
7:55 AM,53.8,48.6,82,29.98,10.0,WSW,13.8,-,N/A,,Clear,240,2012-10-08 14:55:00
8:55 AM,58.8,48.9,70,29.99,10.0,WSW,17.3,-,N/A,,Clear,250,2012-10-08 15:55:00
9:55 AM,63.0,49.3,61,30.01,10.0,WSW,18.4,-,N/A,,Clear,240,2012-10-08 16:55:00
10:55 AM,66.7,49.5,54,30.00,10.0,WSW,16.1,-,N/A,,Clear,250,2012-10-08 17:55:00
11:55 AM,69.3,49.6,50,30.00,10.0,WSW,17.3,-,N/A,,Clear,250,2012-10-08 18:55:00
12:55 PM,71.6,49.6,46,29.99,10.0,WSW,16.1,21.9,N/A,,Clear,250,2012-10-08 19:55:00
1:55 PM,73.9,50.4,43,29.97,10.0,WSW,15.0,-,N/A,,Clear,240,2012-10-08 20:55:00
2:55 PM,73.8,50.0,43,29.96,10.0,SW,17.3,23.0,N/A,,Clear,230,2012-10-08 21:55:00
3:55 PM,73.6,49.6,43,29.96,10.0,West,18.4,25.3,N/A,,Clear,260,2012-10-08 22:55:00
4:55 PM,71.6,48.9,45,29.96,10.0,West,17.3,-,N/A,,Clear,260,2012-10-08 23:55:00
5:55 PM,69.1,48.9,49,29.95,10.0,WSW,24.2,-,N/A,,Clear,250,2012-10-09 00:55:00
6:55 PM,65.3,49.1,56,29.95,10.0,WSW,17.3,-,N/A,,Clear,250,2012-10-09 01:55:00
7:55 PM,62.4,50.5,65,29.97,10.0,WSW,16.1,-,N/A,,Clear,250,2012-10-09 02:55:00
8:55 PM,59.9,51.6,74,29.98,10.0,WSW,19.6,-,N/A,,Clear,240,2012-10-09 03:55:00
9:55 PM,57.7,52.2,82,29.99,10.0,WSW,18.4,-,N/A,,Clear,240,2012-10-09 04:55:00
10:55 PM,56.8,52.3,85,29.99,10.0,WSW,13.8,-,N/A,,Clear,250,2012-10-09 05:55:00
11:55 PM,55.9,51.8,86,29.99,10.0,SW,11.5,-,N/A,,Clear,230,2012-10-09 06:55:00